[[{"header":{"parameterUnit":"m.s-1","parameterCategory":2,"la1":30.2992,"la2":30.254,"lo1":-89.0895,"lo2":-89.0443,"dy":0.0025,"dx":0.0025,"nx":19,"ny":19,"refTime":"2026-04-09T09:00:00:Z","depth":"0","parameterNumber":2,"parameterNumberName":"U-component_of_CURRENTS"},"data":[0,0,0,-0.1722,-0.1722,-0.1738,-0.1739,-0.167,-0.1669,0,0,0,0,0,0,0,0,0,0,0,-0.173,-0.173,-0.1722,-0.1722,-0.1738,-0.1739,-0.167,-0.1669,0,0,0,0,0,0,0,0,0,0,0,-0.173,-0.173,-0.1731,-0.1722,-0.1738,-0.1739,-0.167,-0.1681,0,0,0,0,0,0,0,0,0,0,-0.1677,-0.1674,-0.173,-0.1731,-0.1722,-0.1738,-0.1739,-0.1683,-0.168,-0.1635,0,-0.1649,0,-0.1646,-0.1662,-0.1661,0,0,0,-0.1726,-0.1676,-0.1699,-0.1731,-0.1722,-0.1738,-0.1732,-0.1682,-0.1679,-0.1632,-0.1648,-0.1646,-0.1645,-0.1661,-0.166,-0.1637,-0.1637,0,0,-0.1725,-0.1709,-0.1701,-0.1697,-0.1738,-0.1732,-0.1733,-0.1681,-0.167,-0.1648,-0.1644,-0.1644,-0.166,-0.1659,-0.1636,-0.1637,0,0,0,-0.172,-0.1709,-0.1734,-0.17,-0.1704,-0.1732,-0.1733,-0.1672,-0.1687,-0.1644,-0.1643,-0.166,-0.1658,-0.1636,-0.1637,-0.1702,0,0,0,-0.1719,-0.1706,-0.1734,-0.1721,-0.1706,-0.1694,-0.1725,-0.1691,-0.1685,-0.1644,-0.166,-0.1657,-0.1635,-0.1636,-0.1699,-0.1729,0,0,0,-0.1727,-0.1705,-0.1716,-0.1721,-0.1727,-0.1696,-0.1707,-0.1691,-0.1684,-0.1661,-0.1657,-0.1635,-0.1636,-0.1696,-0.1724,-0.1776,0,0,0,-0.1698,-0.1727,-0.1716,-0.1748,-0.1727,-0.1752,-0.1708,-0.1714,-0.1703,-0.1659,-0.1635,-0.1636,-0.1695,-0.1721,-0.1773,-0.1766,-0.178,0,0,-0.1726,-0.1729,-0.1754,-0.1745,-0.178,-0.1749,-0.1775,-0.1744,-0.1704,-0.1644,-0.1645,-0.17,-0.1724,-0.1776,-0.1838,-0.185,0,0,0,-0.1758,-0.1776,-0.1784,-0.18,-0.1806,-0.1808,-0.178,-0.1774,-0.1756,-0.1701,-0.1707,-0.172,-0.1751,-0.174,-0.175,-0.1753,-0.1642,-0.1642,-0.1642,-0.1764,-0.1791,-0.1815,-0.1842,-0.185,-0.1849,-0.1865,-0.1847,-0.179,-0.1808,-0.1779,-0.187,-0.186,-0.1867,-0.1871,-0.1784,-0.1785,-0.1785,-0.1785,-0.1793,-0.1796,-0.1829,-0.186,-0.187,-0.1879,-0.1905,-0.1903,-0.1924,-0.1862,-0.1888,-0.1816,-0.1881,-0.1882,-0.1789,-0.1789,-0.1788,-0.1788,-0.1787,-0.1774,-0.1771,-0.1801,-0.1823,-0.1852,-0.1873,-0.1932,-0.1952,-0.197,-0.2007,-0.1976,-0.1974,-0.1969,-0.2007,-0.2008,-0.2008,-0.2008,-0.2009,-0.2009,-0.1706,-0.1738,-0.1734,-0.1773,-0.1783,-0.1831,-0.1932,-0.1993,-0.2047,-0.2052,-0.2052,-0.2006,-0.1938,-0.1924,-0.2015,-0.2014,-0.2013,-0.2012,-0.2012,-0.1635,-0.1642,-0.1638,-0.1647,-0.17,-0.1744,-0.1884,-0.2032,-0.2113,-0.2145,-0.212,-0.2083,-0.2062,-0.2053,-0.2041,-0.2157,-0.2157,-0.2157,-0.2157,-0.1556,-0.157,-0.1535,-0.1542,-0.1595,-0.1697,-0.1819,-0.1981,-0.2121,-0.2154,-0.2184,-0.2128,-0.2122,-0.2101,-0.2091,-0.2078,-0.2202,-0.2202,-0.2202,-0.1475,-0.1488,-0.1435,-0.1471,-0.1535,-0.1647,-0.1732,-0.1922,-0.2129,-0.2204,-0.2198,-0.2196,-0.2112,-0.2101,-0.206,-0.2046,-0.2021,0,0]},{"header":{"parameterUnit":"m.s-1","parameterCategory":2,"la1":30.2992,"la2":30.254,"lo1":-89.0895,"lo2":-89.0443,"dy":0.0025,"dx":0.0025,"nx":19,"ny":19,"refTime":"2026-04-09T09:00:00:Z","depth":"0","parameterNumber":3,"parameterNumberName":"V-component_of_CURRENTS"},"data":[0,0,0,-0.0366,-0.0364,-0.0216,-0.0215,-0.0035,-0.0034,0,0,0,0,0,0,0,0,0,0,0,-0.0417,-0.0416,-0.0367,-0.0363,-0.0216,-0.0215,-0.0035,-0.0034,0,0,0,0,0,0,0,0,0,0,0,-0.0417,-0.0416,-0.0415,-0.0363,-0.0216,-0.0215,-0.0036,-0.0141,0,0,0,0,0,0,0,0,0,0,-0.0281,-0.0352,-0.0416,-0.0415,-0.0362,-0.0216,-0.0215,-0.0145,-0.0134,-0.011,0,-0.0095,0,-0.0068,-0.0023,-0.0023,0,0,0,-0.0346,-0.0361,-0.0306,-0.0415,-0.0361,-0.0217,-0.0278,-0.0139,-0.0126,-0.0095,-0.0092,-0.0085,-0.0065,-0.0022,-0.0022,0.0131,0.0131,0,0,-0.0354,-0.0401,-0.0315,-0.0298,-0.0333,-0.0282,-0.0273,-0.0131,-0.0132,-0.0091,-0.0081,-0.0062,-0.0021,-0.002,0.013,0.0131,0,0,0,-0.0389,-0.0407,-0.0354,-0.0306,-0.0282,-0.0279,-0.0268,-0.0138,-0.0116,-0.0079,-0.0059,-0.002,-0.0019,0.013,0.013,0.0073,0,0,0,-0.0393,-0.0428,-0.0358,-0.0386,-0.0285,-0.0212,-0.0279,-0.0126,-0.0109,-0.006,-0.002,-0.0017,0.0129,0.013,0.0074,0.0028,0,0,0,-0.0422,-0.0431,-0.0413,-0.0388,-0.033,-0.0214,-0.0183,-0.0121,-0.0098,-0.0023,-0.0017,0.0129,0.013,0.0074,0.003,0.0049,0,0,0,-0.0473,-0.0474,-0.0415,-0.0408,-0.0332,-0.0242,-0.0184,-0.0111,-0.0051,-0.002,0.0129,0.013,0.0074,0.0031,0.005,0.0051,0.0048,0,0,-0.0506,-0.048,-0.0473,-0.0417,-0.0362,-0.026,-0.0186,-0.0085,-0.002,0.0083,0.0087,0.0074,0.003,0.0049,0.0122,0.0117,0,0,0,-0.0503,-0.05,-0.0472,-0.0426,-0.0337,-0.0245,-0.0134,-0.0069,0.0039,0.0019,0.0115,0.009,0.0103,0.0107,0.0104,0.0318,0.0136,0.0136,0.0136,-0.0594,-0.0538,-0.0519,-0.0435,-0.037,-0.0222,-0.0143,-0.0026,0.0034,0.0081,0.0075,0.009,0.0095,0.0092,0.0313,0.0123,0.0123,0.0123,0.0123,-0.0636,-0.0621,-0.0547,-0.051,-0.0395,-0.0314,-0.0139,-0.0072,0.0044,0.008,0.0097,0.0085,0.0085,0.0322,0.012,0.012,0.0121,0.0121,0.0121,-0.0695,-0.0679,-0.065,-0.0584,-0.0504,-0.0368,-0.0289,-0.0156,-0.0025,0.0,0.0046,0.0047,0.023,0.0022,0.0021,0.0021,0.0021,0.0021,0.0021,-0.076,-0.0727,-0.0725,-0.0655,-0.0621,-0.0546,-0.0374,-0.029,-0.0124,-0.0017,-0.0016,0.0276,0.006,0.0033,0.0019,0.002,0.002,0.002,0.002,-0.0817,-0.0806,-0.0808,-0.0792,-0.0726,-0.0716,-0.0559,-0.0373,-0.0239,-0.0158,0.0255,0.0001,0.0022,0.0026,0.0001,-0.002,-0.002,-0.002,-0.002,-0.0861,-0.0854,-0.0864,-0.0864,-0.0848,-0.0789,-0.0735,-0.0483,-0.0011,0.0256,0.0362,0.0416,0.0408,0.0457,0.0452,0.0438,0.0529,0.053,0.0531,-0.0884,-0.0885,-0.0909,-0.0909,-0.0899,-0.0892,-0.0855,-0.0551,0.0199,0.0578,0.0665,0.0641,0.0747,0.0717,0.0811,0.0786,0.0769,0,0]}],[{"header":{"parameterUnit":"m.s-1","parameterCategory":2,"la1":30.2992,"la2":30.254,"lo1":-89.0895,"lo2":-89.0443,"dy":0.0025,"dx":0.0025,"nx":19,"ny":19,"refTime":"2026-04-09T09:00:00:Z","depth":"2","parameterNumber":2,"parameterNumberName":"U-component_of_CURRENTS"},"data":[0,0,0,-0.1602,-0.1603,-0.1625,-0.1625,-0.1552,-0.1551,0,0,0,0,0,0,0,0,0,0,0,-0.1614,-0.1615,-0.1602,-0.1603,-0.1625,-0.1625,-0.1552,-0.1551,0,0,0,0,0,0,0,0,0,0,0,-0.1614,-0.1615,-0.1616,-0.1603,-0.1625,-0.1625,-0.1552,-0.1561,0,0,0,0,0,0,0,0,0,0,-0.1552,-0.1547,-0.1615,-0.1616,-0.1603,-0.1625,-0.1625,-0.1563,-0.156,-0.1511,0,-0.1534,0,-0.1528,-0.1543,-0.1543,0,0,0,-0.1605,-0.1549,-0.1581,-0.1616,-0.1603,-0.1625,-0.1616,-0.1562,-0.156,-0.1508,-0.1533,-0.153,-0.1527,-0.1543,-0.1542,-0.1512,-0.1513,0,0,-0.1603,-0.1585,-0.1584,-0.1581,-0.163,-0.1615,-0.1616,-0.1562,-0.1549,-0.1532,-0.1528,-0.1525,-0.1542,-0.1541,-0.1512,-0.1512,0,0,0,-0.1599,-0.1584,-0.1619,-0.1584,-0.1589,-0.1616,-0.1617,-0.1552,-0.1572,-0.1527,-0.1524,-0.1541,-0.154,-0.1511,-0.1512,-0.1581,0,0,0,-0.1598,-0.1581,-0.1619,-0.1603,-0.1591,-0.1575,-0.1608,-0.1577,-0.157,-0.1525,-0.1541,-0.1539,-0.1511,-0.1512,-0.1578,-0.1598,0,0,0,-0.1609,-0.158,-0.1597,-0.1603,-0.1613,-0.1577,-0.1594,-0.1576,-0.1567,-0.1543,-0.1538,-0.151,-0.1511,-0.1575,-0.1593,-0.1643,0,0,0,-0.157,-0.1602,-0.1597,-0.163,-0.1613,-0.1645,-0.1594,-0.16,-0.1589,-0.1541,-0.1511,-0.1512,-0.1574,-0.1591,-0.164,-0.1621,-0.1633,0,0,-0.1593,-0.1603,-0.1629,-0.1626,-0.1675,-0.164,-0.1665,-0.163,-0.1586,-0.152,-0.152,-0.1579,-0.1593,-0.1643,-0.1691,-0.1701,0,0,0,-0.1626,-0.1655,-0.1667,-0.1693,-0.1702,-0.17,-0.1671,-0.1661,-0.1636,-0.1584,-0.1584,-0.1591,-0.162,-0.1602,-0.1611,-0.1518,-0.1518,-0.1517,-0.1517,-0.1644,-0.1674,-0.1705,-0.1741,-0.1748,-0.1742,-0.1751,-0.1725,-0.1673,-0.1687,-0.1652,-0.174,-0.1723,-0.1728,-0.1661,-0.1662,-0.1662,-0.1662,-0.1662,-0.1679,-0.1684,-0.1723,-0.176,-0.1766,-0.1771,-0.1783,-0.1779,-0.1791,-0.1732,-0.1757,-0.1681,-0.1742,-0.1668,-0.1667,-0.1666,-0.1665,-0.1665,-0.1665,-0.1671,-0.1664,-0.1698,-0.1718,-0.1744,-0.1758,-0.1801,-0.1815,-0.1832,-0.1866,-0.183,-0.1828,-0.1778,-0.1872,-0.1872,-0.1872,-0.1873,-0.1873,-0.1873,-0.1597,-0.1631,-0.1628,-0.1666,-0.1673,-0.1711,-0.1796,-0.1849,-0.1895,-0.1899,-0.1899,-0.1811,-0.1804,-0.179,-0.1878,-0.1877,-0.1877,-0.1876,-0.1876,-0.1532,-0.1535,-0.1528,-0.1538,-0.1581,-0.1606,-0.1739,-0.1871,-0.1947,-0.1973,-0.1927,-0.1924,-0.1898,-0.189,-0.1878,-0.1983,-0.1983,-0.1983,-0.1983,-0.1456,-0.1468,-0.1425,-0.1425,-0.1468,-0.155,-0.1626,-0.1716,-0.1835,-0.1832,-0.1837,-0.1772,-0.1772,-0.1734,-0.1729,-0.1711,-0.1774,-0.1773,-0.1773,-0.138,-0.1385,-0.1332,-0.1356,-0.1407,-0.1488,-0.1495,-0.1486,-0.1582,-0.1758,-0.1734,-0.1982,-0.19,-0.1895,-0.1844,-0.1834,-0.1808,0,0]},{"header":{"parameterUnit":"m.s-1","parameterCategory":2,"la1":30.2992,"la2":30.254,"lo1":-89.0895,"lo2":-89.0443,"dy":0.0025,"dx":0.0025,"nx":19,"ny":19,"refTime":"2026-04-09T09:00:00:Z","depth":"2","parameterNumber":3,"parameterNumberName":"V-component_of_CURRENTS"},"data":[0,0,0,-0.036,-0.0358,-0.0209,-0.0209,-0.0024,-0.0023,0,0,0,0,0,0,0,0,0,0,0,-0.0411,-0.041,-0.0361,-0.0358,-0.021,-0.0209,-0.0024,-0.0023,0,0,0,0,0,0,0,0,0,0,0,-0.0411,-0.041,-0.041,-0.0357,-0.021,-0.0209,-0.0025,-0.0131,0,0,0,0,0,0,0,0,0,0,-0.0272,-0.0344,-0.0411,-0.041,-0.0356,-0.021,-0.0208,-0.0136,-0.0124,-0.0099,0,-0.0085,0,-0.0057,-0.0012,-0.0012,0,0,0,-0.0339,-0.0354,-0.0298,-0.041,-0.0355,-0.021,-0.0271,-0.0129,-0.0116,-0.0083,-0.0082,-0.0075,-0.0054,-0.0011,-0.001,0.0143,0.0143,0,0,-0.0347,-0.0394,-0.0307,-0.0291,-0.0328,-0.0276,-0.0267,-0.0121,-0.0122,-0.0081,-0.007,-0.0051,-0.001,-0.0009,0.0142,0.0143,0,0,0,-0.0383,-0.04,-0.0348,-0.0298,-0.0275,-0.0272,-0.0261,-0.0128,-0.0107,-0.0068,-0.0049,-0.0009,-0.0007,0.0142,0.0143,0.0083,0,0,0,-0.0387,-0.0422,-0.0352,-0.0379,-0.0278,-0.0204,-0.0273,-0.0117,-0.0099,-0.005,-0.0009,-0.0006,0.0141,0.0142,0.0083,0.0034,0,0,0,-0.0416,-0.0425,-0.0408,-0.0382,-0.0324,-0.0206,-0.0176,-0.0112,-0.0089,-0.0012,-0.0005,0.0141,0.0142,0.0083,0.0037,0.0051,0,0,0,-0.0467,-0.0466,-0.0409,-0.04,-0.0326,-0.0233,-0.0176,-0.0101,-0.0039,-0.0008,0.0141,0.0142,0.0083,0.0038,0.0052,0.0049,0.0045,0,0,-0.0495,-0.0471,-0.0463,-0.0408,-0.0353,-0.0252,-0.0176,-0.0075,-0.0009,0.0095,0.0099,0.0083,0.0037,0.0051,0.0117,0.0111,0,0,0,-0.049,-0.0488,-0.046,-0.0415,-0.0325,-0.0235,-0.0122,-0.0059,0.0047,0.0031,0.0124,0.0097,0.0108,0.011,0.0106,0.0148,0.0148,0.0148,0.0148,-0.0581,-0.0525,-0.0505,-0.0421,-0.0356,-0.021,-0.0134,-0.002,0.0043,0.0087,0.008,0.0089,0.0092,0.0088,0.0129,0.0129,0.0129,0.0129,0.0128,-0.0618,-0.0603,-0.0532,-0.0494,-0.0382,-0.0301,-0.0133,-0.0068,0.0041,0.0081,0.0095,0.0085,0.008,0.0125,0.0125,0.0126,0.0126,0.0127,0.0127,-0.0678,-0.0661,-0.0631,-0.0564,-0.0489,-0.0356,-0.0285,-0.0157,-0.0031,-0.001,0.0034,0.0036,0.0031,0.0011,0.0011,0.0011,0.0011,0.0011,0.0011,-0.0739,-0.0706,-0.0704,-0.0634,-0.0603,-0.0533,-0.0372,-0.0294,-0.0137,-0.0034,-0.0033,0.005,0.0054,0.0027,0.0009,0.0009,0.0009,0.001,0.001,-0.0796,-0.0784,-0.0784,-0.0771,-0.071,-0.0703,-0.0557,-0.0384,-0.0259,-0.0183,-0.0023,-0.0022,-0.0,0.0005,-0.0021,-0.0051,-0.0051,-0.0051,-0.0051,-0.0841,-0.0833,-0.0841,-0.0844,-0.0832,-0.0776,-0.0731,-0.051,-0.0244,-0.0098,-0.0097,-0.0079,-0.0075,-0.0056,-0.005,-0.0076,-0.012,-0.0121,-0.0121,-0.0866,-0.0865,-0.0891,-0.089,-0.0884,-0.0877,-0.0847,-0.0592,-0.0216,-0.0125,-0.0124,-0.0053,-0.002,-0.0017,0.0021,0.0027,-0.001,0,0]}],[{"header":{"parameterUnit":"m.s-1","parameterCategory":2,"la1":30.2992,"la2":30.254,"lo1":-89.0895,"lo2":-89.0443,"dy":0.0025,"dx":0.0025,"nx":19,"ny":19,"refTime":"2026-04-09T09:00:00:Z","depth":"4","parameterNumber":2,"parameterNumberName":"U-component_of_CURRENTS"},"data":[0,0,0,-0.0269,-0.027,-0.0286,-0.0286,-0.0428,-0.043,0,0,0,0,0,0,0,0,0,0,0,-0.0274,-0.0274,-0.0269,-0.027,-0.0286,-0.0286,-0.0428,-0.043,0,0,0,0,0,0,0,0,0,0,0,-0.0274,-0.0274,-0.0274,-0.027,-0.0286,-0.0286,-0.0428,-0.0386,0,0,0,0,0,0,0,0,0,0,-0.0355,-0.0326,-0.0274,-0.0275,-0.027,-0.0286,-0.0286,-0.0382,-0.0388,-0.0455,0,-0.0462,0,-0.0448,-0.0442,-0.0443,0,0,0,-0.0272,-0.032,-0.0339,-0.0275,-0.027,-0.0286,-0.0279,-0.0385,-0.0392,-0.0464,-0.0464,-0.0468,-0.0451,-0.0443,-0.0444,-0.0712,-0.0714,0,0,-0.0271,-0.0266,-0.0334,-0.0343,-0.0284,-0.0279,-0.028,-0.0387,-0.0394,-0.0464,-0.047,-0.0453,-0.0444,-0.0446,-0.0711,-0.0713,0,0,0,-0.0267,-0.0266,-0.0278,-0.0339,-0.0332,-0.0279,-0.028,-0.0389,-0.0397,-0.0472,-0.0455,-0.0445,-0.0448,-0.0709,-0.0711,-0.0819,0,0,0,-0.0266,-0.0263,-0.0278,-0.0274,-0.0329,-0.034,-0.028,-0.039,-0.0401,-0.0454,-0.0445,-0.0449,-0.0707,-0.071,-0.0812,-0.0845,0,0,0,-0.0271,-0.0263,-0.027,-0.0274,-0.028,-0.0337,-0.035,-0.0391,-0.0392,-0.0443,-0.045,-0.0706,-0.071,-0.0806,-0.0835,-0.0891,0,0,0,-0.0258,-0.0271,-0.027,-0.0292,-0.028,-0.0358,-0.0349,-0.0386,-0.0428,-0.0446,-0.0707,-0.0711,-0.0804,-0.083,-0.0886,-0.0693,0,0,0,-0.0268,-0.0272,-0.0289,-0.0289,-0.0335,-0.0355,-0.0488,-0.0514,-0.052,-0.0677,-0.0682,-0.0815,-0.0835,-0.089,-0.0918,0,0,0,0,-0.0288,-0.0301,-0.0314,-0.0344,-0.0397,-0.0528,-0.0558,-0.0609,-0.0728,-0.0563,-0.0861,-0.0871,-0.0902,-0.0777,-0.073,-0.0729,-0.0729,-0.0728,-0.0728,-0.0266,-0.0308,-0.0366,-0.0449,-0.0528,-0.0654,-0.0763,-0.0864,-0.0841,-0.0918,-0.0994,-0.1157,-0.1036,-0.1041,-0.1042,-0.1043,-0.1043,-0.1043,-0.1044,-0.0328,-0.0397,-0.0467,-0.056,-0.0705,-0.0861,-0.1038,-0.1057,-0.1203,-0.1151,-0.1176,-0.0944,-0.1056,-0.1053,-0.1051,-0.105,-0.1049,-0.1048,-0.1048,-0.0356,-0.0412,-0.0495,-0.0669,-0.0857,-0.1016,-0.1174,-0.1271,-0.1306,-0.1356,-0.1197,-0.1232,-0.1179,-0.1362,-0.1363,-0.1363,-0.1363,-0.1364,-0.1364,-0.0402,-0.0488,-0.0586,-0.0772,-0.0886,-0.1059,-0.1257,-0.1309,-0.1374,-0.1303,-0.1379,-0.1264,-0.1253,-0.1199,-0.1371,-0.137,-0.1369,-0.1368,-0.1368,-0.0477,-0.0509,-0.0645,-0.0746,-0.0967,-0.1057,-0.1241,-0.1292,-0.1341,-0.1319,-0.127,-0.1273,-0.1206,-0.1197,-0.1137,-0.1297,-0.1295,-0.1293,0,-0.05,-0.0524,-0.0679,-0.0796,-0.092,-0.1053,-0.1084,-0.116,-0.1207,-0.116,-0.1329,-0.1271,-0.1272,-0.1191,-0.118,-0.1107,0,0,0,-0.054,-0.0576,-0.0647,-0.0752,-0.0884,-0.097,-0.1084,-0.1067,-0.1203,-0.1193,-0.1247,-0.1259,-0.1319,-0.1391,-0.1295,-0.1283,-0.1189,0,0]},{"header":{"parameterUnit":"m.s-1","parameterCategory":2,"la1":30.2992,"la2":30.254,"lo1":-89.0895,"lo2":-89.0443,"dy":0.0025,"dx":0.0025,"nx":19,"ny":19,"refTime":"2026-04-09T09:00:00:Z","depth":"4","parameterNumber":3,"parameterNumberName":"V-component_of_CURRENTS"},"data":[0,0,0,0.0126,0.0127,0.0188,0.0188,0.0271,0.0272,0,0,0,0,0,0,0,0,0,0,0,0.0113,0.0113,0.0126,0.0127,0.0188,0.0188,0.0271,0.0272,0,0,0,0,0,0,0,0,0,0,0,0.0113,0.0113,0.0113,0.0127,0.0188,0.0188,0.0271,0.0229,0,0,0,0,0,0,0,0,0,0,0.0171,0.0151,0.0113,0.0113,0.0127,0.0187,0.0188,0.0227,0.0231,0.0239,0,0.0241,0,0.0246,0.0276,0.0276,0,0,0,0.0147,0.0148,0.0158,0.0113,0.0128,0.0187,0.0166,0.023,0.0235,0.0245,0.0242,0.0245,0.0247,0.0276,0.0276,0.029,0.029,0,0,0.0144,0.0133,0.0154,0.016,0.0133,0.0164,0.0168,0.0233,0.0237,0.0242,0.0247,0.0249,0.0276,0.0277,0.029,0.029,0,0,0,0.0121,0.013,0.014,0.0157,0.0161,0.0165,0.017,0.0235,0.0236,0.0247,0.025,0.0277,0.0277,0.0291,0.029,0.0221,0,0,0,0.012,0.0115,0.0138,0.0134,0.0159,0.0197,0.017,0.0232,0.0239,0.0249,0.0277,0.0278,0.0291,0.029,0.0224,0.0172,0,0,0,0.0112,0.0115,0.0117,0.0132,0.0148,0.0196,0.0202,0.0234,0.0239,0.0276,0.0278,0.0291,0.0291,0.0226,0.0177,0.0171,0,0,0,0.0105,0.0099,0.0117,0.0114,0.0147,0.0172,0.0202,0.0236,0.0266,0.0277,0.0291,0.029,0.0227,0.018,0.0173,0.0124,0,0,0,0.0091,0.0097,0.0095,0.0112,0.0113,0.0166,0.016,0.0213,0.0256,0.0274,0.0275,0.0223,0.0178,0.0171,0.0086,0,0,0,0,0.0086,0.0081,0.009,0.0091,0.0119,0.0113,0.0171,0.0193,0.022,0.0265,0.0229,0.0202,0.0201,0.018,0.0287,0.0287,0.0287,0.0287,0.0287,0.0042,0.0051,0.0034,0.0042,0.0048,0.0083,0.009,0.0123,0.0183,0.0182,0.0151,0.0102,0.0077,0.017,0.017,0.0169,0.0169,0.0169,0.0169,-0.002,-0.0053,-0.0042,-0.0063,-0.0063,-0.0071,-0.0026,0.0017,0.0045,0.0094,0.0098,0.0114,0.0162,0.0163,0.0164,0.0165,0.0166,0.0166,0.0167,-0.0088,-0.0108,-0.0119,-0.0171,-0.0208,-0.0185,-0.0207,-0.0134,-0.0042,-0.0039,-0.002,0.0059,0.006,-0.0016,-0.0016,-0.0017,-0.0017,-0.0017,-0.0017,-0.0178,-0.0186,-0.024,-0.0279,-0.032,-0.0349,-0.0299,-0.0262,-0.0161,-0.0119,-0.0051,0.004,0.0046,0.0051,-0.0021,-0.0021,-0.002,-0.002,-0.0019,-0.0271,-0.0272,-0.0357,-0.0403,-0.0478,-0.0486,-0.0442,-0.0348,-0.0306,-0.0249,-0.0145,-0.0137,-0.0114,-0.0105,-0.0104,-0.0225,-0.0226,-0.0227,0,-0.0329,-0.0336,-0.0454,-0.054,-0.0601,-0.0575,-0.0541,-0.0468,-0.0336,-0.0339,-0.0292,-0.0178,-0.0171,-0.0147,-0.014,-0.0143,0,0,0,-0.0379,-0.0415,-0.0506,-0.0588,-0.0658,-0.059,-0.0529,-0.0494,-0.0364,-0.0325,-0.025,-0.0244,-0.0137,-0.0034,0.002,0.0027,0.0037,0,0]}]]